KA1WBH Weather Reports


Display with metric or nautical units.
time (UTC)temp
F
wind
direction
speed
MPH
gust
MPH
rain 1hr
in
rain 24hr
in
rain mn
in
humidity
%
barometer
mb
20171021120220 52 333 0.0 0.0 0.00 0.00 0.00 75 1025.1
20171021115219 52 333 0.0 0.0 0.00 0.00 0.00 73 1025.1
20171021114219 52 333 0.0 0.0 0.00 0.00 0.00 73 1024.9
20171021113219 52 333 0.0 0.0 0.00 0.00 0.00 77 1024.7
20171021112219 52 333 0.0 1.0 0.00 0.00 0.00 79 1024.8
20171021111219 51 333 0.0 0.0 0.00 0.00 0.00 76 1024.6
20171021110219 51 334 0.0 0.0 0.00 0.00 0.00 74 1024.5
20171021105219 52 333 0.0 0.0 0.00 0.00 0.00 74 1024.3
20171021104219 52 333 0.0 0.0 0.00 0.00 0.00 74 1024.4
20171021103219 53 333 0.0 1.0 0.00 0.00 0.00 73 1024.3
20171021102220 53 333 0.0 2.0 0.00 0.00 0.00 72 1024.2
20171021101219 53 334 0.0 1.0 0.00 0.00 0.00 67 1024.0
20171021100220 53 335 0.0 2.0 0.00 0.00 0.00 67 1023.9
20171021095219 53 331 0.0 1.0 0.00 0.00 0.00 67 1023.8
20171021094219 53 331 0.0 0.0 0.00 0.00 0.00 67 1023.7
20171021093219 54 331 0.0 2.0 0.00 0.00 0.00 69 1023.5
20171021092219 54 331 0.0 2.0 0.00 0.00 0.00 68 1023.5
20171021091219 54 311 0.0 7.0 0.00 0.00 0.00 67 1023.2
20171021090219 53 328 0.0 2.0 0.00 0.00 0.00 70 1023.1
20171021085219 53 323 0.0 2.0 0.00 0.00 0.00 71 1023.1
20171021084219 53 324 0.0 2.0 0.00 0.00 0.00 71 1023.0
20171021083219 54 320 0.0 5.0 0.00 0.00 0.00 71 1022.9
20171021082219 54 318 0.0 2.0 0.00 0.00 0.00 71 1022.7
20171021081219 54 340 0.0 3.0 0.00 0.00 0.00 69 1022.4
20171021080219 54 327 0.0 5.0 0.00 0.00 0.00 67 1022.3
20171021075219 54 318 1.0 4.0 0.00 0.00 0.00 67 1022.2
20171021074219 55 338 0.0 4.0 0.00 0.00 0.00 66 1021.9
20171021073219 55 318 0.0 3.0 0.00 0.00 0.00 66 1021.9
20171021072219 55 300 0.0 3.0 0.00 0.00 0.00 65 1021.9
20171021071219 55 320 0.0 3.0 0.00 0.00 0.00 64 1021.8
20171021070219 55 331 0.0 3.0 0.00 0.00 0.00 64 1022.0
20171021065219 55 339 0.0 2.0 0.00 0.00 0.00 65 1022.0
20171021064219 55 340 0.0 4.0 0.00 0.00 0.00 64 1022.1
20171021063219 55 333 0.0 1.0 0.00 0.00 0.00 65 1022.0
20171021062219 55 333 0.0 1.0 0.00 0.00 0.00 65 1022.1
20171021061219 56 333 0.0 2.0 0.00 0.00 0.00 64 1022.0
20171021060219 56 339 3.0 5.0 0.00 0.00 0.00 63 1021.9
20171021055219 55 337 1.0 2.0 0.00 0.00 0.00 66 1021.9
20171021054219 55 339 0.0 1.0 0.00 0.00 0.00 66 1021.9
20171021053219 55 339 0.0 3.0 0.00 0.00 0.00 65 1021.9
20171021052219 55 314 0.0 0.0 0.00 0.00 0.00 64 1022.0
20171021051219 55 312 0.0 1.0 0.00 0.00 0.00 62 1021.8
20171021050219 56 314 0.0 2.0 0.00 0.00 0.00 62 1021.6
20171021045220 56 313 0.0 1.0 0.00 0.00 0.00 63 1021.4
20171021044219 56 314 0.0 3.0 0.00 0.00 0.00 63 1021.3
20171021043219 57 314 0.0 1.0 0.00 0.00 0.00 63 1021.2
20171021042219 57 314 0.0 1.0 0.00 0.00 0.00 62 1021.0
20171021041219 58 327 0.0 2.0 0.00 0.00 0.00 59 1021.0
20171021040219 58 316 0.0 3.0 0.00 0.00 0.00 58 1020.7
20171021035219 59 314 0.0 2.0 0.00 0.00 0.00 58 1020.6
20171021034219 59 302 0.0 1.0 0.00 0.00 0.00 58 1020.4
20171021033219 59 302 0.0 4.0 0.00 0.00 0.00 58 1020.3
20171021032219 60 304 1.0 2.0 0.00 0.00 0.00 56 1020.4
20171021031219 60 321 0.0 5.0 0.00 0.00 0.00 56 1020.4
20171021030219 60 311 1.0 3.0 0.00 0.00 0.00 60 1019.9
20171021025219 59 305 0.0 7.0 0.00 0.00 0.00 62 1019.8
20171021024219 60 293 3.0 3.0 0.00 0.00 0.00 63 1020.0
20171021023219 60 295 0.0 2.0 0.00 0.00 0.00 61 1019.9
20171021022218 60 297 0.0 2.0 0.00 0.00 0.00 59 1019.8
20171021021218 60 303 0.0 1.0 0.00 0.00 0.00 59 1019.6
20171021020218 60 304 0.0 2.0 0.00 0.00 0.00 58 1019.4
20171021015219 60 304 0.0 4.0 0.00 0.00 0.00 57 1019.2
20171021014219 60 300 0.0 7.0 0.00 0.00 0.00 57 1019.1
20171021013218 60 324 0.0 4.0 0.00 0.00 0.00 58 1019.0
20171021012218 60 300 0.0 1.0 0.00 0.00 0.00 60 1019.0
20171021011218 60 301 0.0 2.0 0.00 0.00 0.00 61 1018.7
20171021010218 61 318 0.0 1.0 0.00 0.00 0.00 60 1018.8
20171021005218 62 318 0.0 1.0 0.00 0.00 0.00 56 1018.7
20171021004218 62 318 0.0 2.0 0.00 0.00 0.00 53 1018.5
20171021003218 62 322 0.0 2.0 0.00 0.00 0.00 52 1018.5
20171021002218 63 343 0.0 7.0 0.00 0.00 0.00 51 1018.2
20171021001219 63 297 2.0 7.0 0.00 0.00 0.00 52 1018.0
20171021000218 63 302 2.0 6.0 0.00 0.00 0.00 54 1018.1
20171020235218 62 310 2.0 6.0 0.00 0.00 0.00 55 1017.9
20171020234218 62 300 0.0 4.0 0.00 0.00 0.00 59 1017.8
20171020233218 62 297 2.0 5.0 0.00 0.00 0.00 59 1017.8
20171020232218 63 320 0.0 7.0 0.00 0.00 0.00 60 1017.7
20171020231218 63 316 0.0 6.0 0.00 0.00 0.00 58 1017.4
20171020230218 62 285 1.0 3.0 0.00 0.00 0.00 62 1017.2
20171020225218 62 282 1.0 5.0 0.00 0.00 0.00 62 1017.1
20171020224218 63 286 1.0 2.0 0.00 0.00 0.00 59 1017.1
20171020223218 63 288 1.0 2.0 0.00 0.00 0.00 58 1017.0
20171020222218 64 277 0.0 1.0 0.00 0.00 0.00 57 1017.0
20171020221218 64 276 0.0 2.0 0.00 0.00 0.00 55 1016.9
20171020220218 65 278 0.0 1.0 0.00 0.00 0.00 53 1016.7
20171020215218 66 277 0.0 2.0 0.00 0.00 0.00 50 1016.7
20171020214218 67 283 1.0 4.0 0.00 0.00 0.00 47 1016.5
20171020213218 67 291 1.0 7.0 0.00 0.00 0.00 46 1016.4
20171020212218 68 325 0.0 7.0 0.00 0.00 0.00 45 1016.3
20171020211218 68 276 4.0 10.0 0.00 0.00 0.00 44 1016.3
20171020210218 68 329 1.0 10.0 0.00 0.00 0.00 44 1016.2
20171020205218 69 359 6.0 11.0 0.00 0.00 0.00 43 1016.2
20171020204218 69 281 3.0 15.0 0.00 0.00 0.00 40 1016.2
20171020203218 69 350 0.0 15.0 0.00 0.00 0.00 40 1016.0
20171020202218 69 294 1.0 12.0 0.00 0.00 0.00 41 1015.9
20171020201218 70 355 4.0 11.0 0.00 0.00 0.00 41 1015.9
20171020200218 70 300 0.0 12.0 0.00 0.00 0.00 42 1015.8
20171020195219 70 287 3.0 18.0 0.00 0.00 0.00 40 1015.7
20171020194218 70 327 2.0 12.0 0.00 0.00 0.00 41 1015.6
20171020193218 70 260 1.0 10.0 0.00 0.00 0.00 41 1015.7
20171020192218 70 320 1.0 14.0 0.00 0.00 0.00 40 1015.5
20171020191218 70 352 4.0 12.0 0.00 0.00 0.00 42 1015.5
20171020190218 70 301 2.0 13.0 0.00 0.00 0.00 41 1015.4
20171020185218 70 305 0.0 13.0 0.00 0.00 0.00 40 1015.4
20171020184218 70 282 0.0 13.0 0.00 0.00 0.00 42 1015.4
20171020183218 70 324 2.0 12.0 0.00 0.00 0.00 44 1015.4
20171020182218 70 293 0.0 12.0 0.00 0.00 0.00 43 1015.6
20171020181218 70 299 3.0 9.0 0.00 0.00 0.00 43 1015.7
20171020180218 70 275 0.0 12.0 0.00 0.00 0.00 42 1015.8
20171020175218 69 315 0.0 14.0 0.00 0.00 0.00 46 1015.8
20171020174219 69 308 7.0 11.0 0.00 0.00 0.00 43 1015.8
20171020173218 69 283 0.0 11.0 0.00 0.00 0.00 46 1015.8
20171020172218 69 333 1.0 6.0 0.00 0.00 0.00 46 1016.0
20171020171219 69 298 0.0 12.0 0.00 0.00 0.00 45 1016.1
20171020170218 68 324 3.0 11.0 0.00 0.00 0.00 46 1016.3
20171020165218 68 329 1.0 12.0 0.00 0.00 0.00 46 1016.4
20171020164218 68 329 7.0 12.0 0.00 0.00 0.00 47 1016.5
20171020163218 68 5 6.0 13.0 0.00 0.00 0.00 46 1016.6
20171020162218 67 323 3.0 14.0 0.00 0.00 0.00 46 1016.8
20171020161218 67 335 7.0 13.0 0.00 0.00 0.00 46 1016.7
20171020160218 67 320 2.0 13.0 0.00 0.00 0.00 47 1016.9
20171020155218 67 317 1.0 10.0 0.00 0.00 0.00 48 1017.0
20171020154218 67 335 0.0 12.0 0.00 0.00 0.00 51 1017.2
20171020153218 67 329 8.0 11.0 0.00 0.00 0.00 49 1017.1
20171020152218 67 325 6.0 10.0 0.00 0.00 0.00 52 1017.3
20171020151218 66 318 5.0 12.0 0.00 0.00 0.00 51 1017.4
20171020150218 66 339 7.0 16.0 0.00 0.00 0.00 51 1017.4
20171020145218 66 334 0.0 15.0 0.00 0.00 0.00 54 1017.5
20171020144218 65 317 5.0 13.0 0.00 0.00 0.00 52 1017.5
20171020143218 65 300 1.0 13.0 0.00 0.00 0.00 57 1017.5
20171020142218 65 310 0.0 13.0 0.00 0.00 0.00 57 1017.6
20171020141218 64 316 1.0 12.0 0.00 0.00 0.00 58 1017.5
20171020140218 64 324 3.0 13.0 0.00 0.00 0.00 59 1017.7
20171020135218 63 287 6.0 16.0 0.00 0.00 0.00 60 1017.6
20171020134218 63 319 5.0 16.0 0.00 0.00 0.00 60 1017.4
20171020133218 63 331 3.0 14.0 0.00 0.00 0.00 61 1017.3
20171020132218 63 288 5.0 19.0 0.00 0.00 0.00 63 1017.2
20171020131218 62 316 7.0 14.0 0.00 0.00 0.00 64 1017.2
20171020130218 62 318 0.0 14.0 0.00 0.00 0.00 65 1017.2
20171020125218 61 315 0.0 17.0 0.00 0.00 0.00 67 1017.2
20171020124218 61 300 3.0 11.0 0.00 0.00 0.00 68 1017.2
20171020123218 61 322 0.0 16.0 0.00 0.00 0.00 69 1017.2
20171020122218 60 286 0.0 13.0 0.00 0.00 0.00 69 1017.2
20171020121218 60 316 5.0 10.0 0.00 0.00 0.00 71 1017.1